Retour au catalogue

ET-001C

ActifSSO
NORAD 69942·PAYLOAD·🇺🇸 United States

Lancé Jul 7, 2026 depuis Vandenberg Space Force Base

Loading…

Prochains Passages (prochaines 24 heures)

TLE

FraisSource: Space-Track

Époque: Sep 13, 2026, 17:39 UTC

1 69942U 26156CB  26256.73569158  .00003489  00000-0  34547-3 0  9995
2 69942  97.7430 156.0784 0006795 290.9432  69.1059 14.92475300 10207

Suivez ET-001C en temps réel avec AllMySat

Download on the App Store